owner,sensor,date,latitude,longitude,vertical_datum,direction_of_sea_water_velocity,sea_water_speed,upward_sea_water_velocity,qcFlag 
TABS,ioos:station:wmo:42050:1,2016-08-01T00:00:00Z,28.8425,-94.2433,2.0,162.7855315,17.36800795,-99999.0,'11111222,11111222,99999999' 
TABS,ioos:station:wmo:42050:1,2016-08-01T00:30:00Z,28.8425,-94.2433,2.0,164.6613674,12.05956052,-99999.0,'11111222,11111222,99999999' 
TABS,ioos:station:wmo:42050:1,2016-08-01T01:00:00Z,28.8425,-94.2433,2.0,166.1105282,9.456495122,-99999.0,'11133222,11111222,99999999' 
TABS,ioos:station:wmo:42050:1,2016-08-01T01:30:00Z,28.8425,-94.2433,2.0,144.3234647,5.281145709,-99999.0,'11133222,11111222,99999999' 
TABS,ioos:station:wmo:42050:1,2016-08-01T02:00:00Z,28.8425,-94.2433,2.0,135.8133685,3.486387815,-99999.0,'11133222,11111222,99999999' 
TABS,ioos:station:wmo:42050:1,2016-08-01T02:30:00Z,28.8425,-94.2433,2.0,92.0722936,3.041989481,-99999.0,'11133222,11111222,99999999' 
TABS,ioos:station:wmo:42050:1,2016-08-01T03:00:00Z,28.8425,-94.2433,2.0,55.3127688,4.621352616,-99999.0,'11133222,11111222,99999999' 
TABS,ioos:station:wmo:42050:1,2016-08-01T03:30:00Z,28.8425,-94.2433,2.0,29.30316223,6.272623056,-99999.0,'11133222,11111222,99999999' 
TABS,ioos:station:wmo:42050:1,2016-08-01T04:00:00Z,28.8425,-94.2433,2.0,27.80938526,9.474217646,-99999.0,'11133222,11111222,99999999' 
TABS,ioos:station:wmo:42050:1,2016-08-01T04:30:00Z,28.8425,-94.2433,2.0,32.91016584,11.81620921,-99999.0,'11111222,11111222,99999999' 
TABS,ioos:station:wmo:42050:1,2016-08-01T05:00:00Z,28.8425,-94.2433,2.0,32.93565354,14.95324045,-99999.0,'11111222,11111222,99999999' 
TABS,ioos:station:wmo:42050:1,2016-08-01T05:30:00Z,28.8425,-94.2433,2.0,30.25006378,12.6644384,-99999.0,'11111222,11111222,99999999' 
TABS,ioos:station:wmo:42050:1,2016-08-01T06:00:00Z,28.8425,-94.2433,2.0,34.15407774,14.73054649,-99999.0,'11111222,11111222,99999999' 
TABS,ioos:station:wmo:42050:1,2016-08-01T06:30:00Z,28.8425,-94.2433,2.0,39.09229928,16.55645191,-99999.0,'11111222,11111222,99999999' 
TABS,ioos:station:wmo:42050:1,2016-08-01T07:00:00Z,28.8425,-94.2433,2.0,37.02136074,16.65805811,-99999.0,'11111222,11111222,99999999' 
TABS,ioos:station:wmo:42050:1,2016-08-01T07:30:00Z,28.8425,-94.2433,2.0,40.35359998,15.79919302,-99999.0,'11111222,11111222,99999999' 
TABS,ioos:station:wmo:42050:1,2016-08-01T08:00:00Z,28.8425,-94.2433,2.0,42.40576511,13.43465668,-99999.0,'11111222,11111222,99999999' 
TABS,ioos:station:wmo:42050:1,2016-08-01T08:30:00Z,28.8425,-94.2433,2.0,50.16298195,11.62959157,-99999.0,'11111222,11111222,99999999' 
TABS,ioos:station:wmo:42050:1,2016-08-01T09:00:00Z,28.8425,-94.2433,2.0,68.01457747,14.45088579,-99999.0,'11111222,11111222,99999999' 
TABS,ioos:station:wmo:42050:1,2016-08-01T09:30:00Z,28.8425,-94.2433,2.0,73.4611193,14.71897415,-99999.0,'11111222,11111222,99999999' 
TABS,ioos:station:wmo:42050:1,2016-08-01T10:00:00Z,28.8425,-94.2433,2.0,82.50083429,13.4853439,-99999.0,'11111222,11111222,99999999' 
TABS,ioos:station:wmo:42050:1,2016-08-01T10:30:00Z,28.8425,-94.2433,2.0,88.39437572,14.27560507,-99999.0,'11111222,11111222,99999999' 
TABS,ioos:station:wmo:42050:1,2016-08-01T11:00:00Z,28.8425,-94.2433,2.0,121.0187232,12.49710767,-99999.0,'11111222,11111222,99999999' 
TABS,ioos:station:wmo:42050:1,2016-08-01T11:30:00Z,28.8425,-94.2433,2.0,130.0095538,16.17628202,-99999.0,'11111222,11111222,99999999' 
TABS,ioos:station:wmo:42050:1,2016-08-01T12:00:00Z,28.8425,-94.2433,2.0,129.8566307,15.77543026,-99999.0,'11111222,11111222,99999999' 
TABS,ioos:station:wmo:42050:1,2016-08-01T12:30:00Z,28.8425,-94.2433,2.0,128.7997499,15.97506182,-99999.0,'11111222,11111222,99999999' 
TABS,ioos:station:wmo:42050:1,2016-08-01T13:00:00Z,28.8425,-94.2433,2.0,130.4152426,15.0387832,-99999.0,'11111222,11111222,99999999' 
TABS,ioos:station:wmo:42050:1,2016-08-01T13:30:00Z,28.8425,-94.2433,2.0,128.6530244,13.36847411,-99999.0,'11111222,11111222,99999999' 
TABS,ioos:station:wmo:42050:1,2016-08-01T14:00:00Z,28.8425,-94.2433,2.0,116.345543,12.84406867,-99999.0,'11111222,11111222,99999999' 
TABS,ioos:station:wmo:42050:1,2016-08-01T14:30:00Z,28.8425,-94.2433,2.0,109.0103857,13.53839355,-99999.0,'11111222,11111222,99999999' 
TABS,ioos:station:wmo:42050:1,2016-08-01T15:00:00Z,28.8425,-94.2433,2.0,96.7164564,15.13386269,-99999.0,'11111222,11111222,99999999' 
TABS,ioos:station:wmo:42050:1,2016-08-01T15:30:00Z,28.8425,-94.2433,2.0,96.89916071,15.73392831,-99999.0,'11111222,11111222,99999999' 
TABS,ioos:station:wmo:42050:1,2016-08-01T16:00:00Z,28.8425,-94.2433,2.0,99.49887566,15.45186397,-99999.0,'11111222,11111222,99999999' 
TABS,ioos:station:wmo:42050:1,2016-08-01T16:30:00Z,28.8425,-94.2433,2.0,99.5613246,14.26820942,-99999.0,'11111222,11111222,99999999' 
TABS,ioos:station:wmo:42050:1,2016-08-01T17:00:00Z,28.8425,-94.2433,2.0,98.3208437,14.44202894,-99999.0,'11111222,11111222,99999999' 
TABS,ioos:station:wmo:42050:1,2016-08-01T17:30:00Z,28.8425,-94.2433,2.0,98.96055523,14.83100131,-99999.0,'11111222,11111222,99999999' 
TABS,ioos:station:wmo:42050:1,2016-08-01T18:00:00Z,28.8425,-94.2433,2.0,110.0913636,17.17518268,-99999.0,'11111222,11111222,99999999' 
TABS,ioos:station:wmo:42050:1,2016-08-01T18:30:00Z,28.8425,-94.2433,2.0,122.3151572,18.03294762,-99999.0,'11111222,11111222,99999999' 
TABS,ioos:station:wmo:42050:1,2016-08-01T19:00:00Z,28.8425,-94.2433,2.0,124.0458577,18.75477539,-99999.0,'11111222,11111222,99999999' 
TABS,ioos:station:wmo:42050:1,2016-08-01T19:30:00Z,28.8425,-94.2433,2.0,131.1513377,18.75233319,-99999.0,'11111222,11111222,99999999' 
TABS,ioos:station:wmo:42050:1,2016-08-01T20:00:00Z,28.8425,-94.2433,2.0,136.0858478,21.26652064,-99999.0,'11111222,11111222,99999999' 
TABS,ioos:station:wmo:42050:1,2016-08-01T20:30:00Z,28.8425,-94.2433,2.0,140.1347454,20.93660192,-99999.0,'11111222,11111222,99999999' 
TABS,ioos:station:wmo:42050:1,2016-08-01T21:00:00Z,28.8425,-94.2433,2.0,145.2658887,21.46491323,-99999.0,'11111222,11111222,99999999' 
TABS,ioos:station:wmo:42050:1,2016-08-01T21:30:00Z,28.8425,-94.2433,2.0,152.4459497,20.21259261,-99999.0,'11111222,11111222,99999999' 
TABS,ioos:station:wmo:42050:1,2016-08-01T22:00:00Z,28.8425,-94.2433,2.0,156.1268974,22.08989814,-99999.0,'11111222,11111222,99999999' 
TABS,ioos:station:wmo:42050:1,2016-08-01T22:30:00Z,28.8425,-94.2433,2.0,159.0910737,23.0048734,-99999.0,'11111222,11111222,99999999' 
TABS,ioos:station:wmo:42050:1,2016-08-01T23:00:00Z,28.8425,-94.2433,2.0,163.6976442,21.83800586,-99999.0,'11111222,11111222,99999999' 
TABS,ioos:station:wmo:42050:1,2016-08-01T23:30:00Z,28.8425,-94.2433,2.0,169.1262946,21.62831477,-99999.0,'11111222,11111222,99999999' 
TABS,ioos:station:wmo:42050:1,2016-08-02T00:00:00Z,28.8425,-94.2433,2.0,171.2379022,19.36600372,-99999.0,'11111222,11111222,99999999' 
TABS,ioos:station:wmo:42050:1,2016-08-02T00:30:00Z,28.8425,-94.2433,2.0,173.0832564,12.95427343,-99999.0,'11111222,11111222,99999999' 
TABS,ioos:station:wmo:42050:1,2016-08-02T01:00:00Z,28.8425,-94.2433,2.0,179.5638528,9.2002663,-99999.0,'11133222,11111222,99999999' 
TABS,ioos:station:wmo:42050:1,2016-08-02T01:30:00Z,28.8425,-94.2433,2.0,180.6722428,4.260293417,-99999.0,'11133222,11111222,99999999' 
TABS,ioos:station:wmo:42050:1,2016-08-02T02:00:00Z,28.8425,-94.2433,2.0,182.7789499,5.156064391,-99999.0,'11133222,11111222,99999999' 
TABS,ioos:station:wmo:42050:1,2016-08-02T02:30:00Z,28.8425,-94.2433,2.0,224.1693708,0.487954916,-99999.0,'11133222,11111222,99999999' 
TABS,ioos:station:wmo:42050:1,2016-08-02T03:00:00Z,28.8425,-94.2433,2.0,320.1947324,2.499279896,-99999.0,'11133222,11111222,99999999' 
TABS,ioos:station:wmo:42050:1,2016-08-02T03:30:00Z,28.8425,-94.2433,2.0,12.38864464,3.542485003,-99999.0,'11133222,11111222,99999999' 
TABS,ioos:station:wmo:42050:1,2016-08-02T04:00:00Z,28.8425,-94.2433,2.0,0.461641923,7.450241607,-99999.0,'11133222,11111222,99999999' 
TABS,ioos:station:wmo:42050:1,2016-08-02T04:30:00Z,28.8425,-94.2433,2.0,359.8077825,11.91006717,-99999.0,'11111222,11144222,99999999' 
TABS,ioos:station:wmo:42050:1,2016-08-02T05:00:00Z,28.8425,-94.2433,2.0,5.782589259,15.08676572,-99999.0,'11111222,11111222,99999999' 
TABS,ioos:station:wmo:42050:1,2016-08-02T05:30:00Z,28.8425,-94.2433,2.0,11.93556641,20.84054222,-99999.0,'11111222,11111222,99999999' 
TABS,ioos:station:wmo:42050:1,2016-08-02T06:00:00Z,28.8425,-94.2433,2.0,12.53544254,19.25908617,-99999.0,'11111222,11111222,99999999' 
TABS,ioos:station:wmo:42050:1,2016-08-02T06:30:00Z,28.8425,-94.2433,2.0,16.31993181,22.70481227,-99999.0,'11111222,11111222,99999999' 
TABS,ioos:station:wmo:42050:1,2016-08-02T07:00:00Z,28.8425,-94.2433,2.0,21.25360451,20.19343458,-99999.0,'11111222,11111222,99999999' 
TABS,ioos:station:wmo:42050:1,2016-08-02T07:30:00Z,28.8425,-94.2433,2.0,23.66760406,23.26696585,-99999.0,'11111222,11111222,99999999' 
TABS,ioos:station:wmo:42050:1,2016-08-02T08:00:00Z,28.8425,-94.2433,2.0,31.78419191,23.59890887,-99999.0,'11111222,11111222,99999999' 
TABS,ioos:station:wmo:42050:1,2016-08-02T08:30:00Z,28.8425,-94.2433,2.0,33.7051961,21.19232172,-99999.0,'11111222,11111222,99999999' 
TABS,ioos:station:wmo:42050:1,2016-08-02T09:00:00Z,28.8425,-94.2433,2.0,42.37415541,16.51414242,-99999.0,'11111222,11111222,99999999' 
TABS,ioos:station:wmo:42050:1,2016-08-02T09:30:00Z,28.8425,-94.2433,2.0,50.16730747,16.1736205,-99999.0,'11111222,11111222,99999999' 
TABS,ioos:station:wmo:42050:1,2016-08-02T10:00:00Z,28.8425,-94.2433,2.0,60.21601324,16.32669593,-99999.0,'11111222,11111222,99999999' 
TABS,ioos:station:wmo:42050:1,2016-08-02T10:30:00Z,28.8425,-94.2433,2.0,82.96020527,15.01318088,-99999.0,'11111222,11111222,99999999' 
TABS,ioos:station:wmo:42050:1,2016-08-02T11:00:00Z,28.8425,-94.2433,2.0,89.09127721,13.87174466,-99999.0,'11111222,11111222,99999999' 
TABS,ioos:station:wmo:42050:1,2016-08-02T11:30:00Z,28.8425,-94.2433,2.0,104.8095104,16.35324127,-99999.0,'11111222,11111222,99999999' 
TABS,ioos:station:wmo:42050:1,2016-08-02T12:00:00Z,28.8425,-94.2433,2.0,111.4866834,13.18642484,-99999.0,'11111222,11111222,99999999' 
TABS,ioos:station:wmo:42050:1,2016-08-02T12:30:00Z,28.8425,-94.2433,2.0,105.7055112,27.89130689,-99999.0,'11111222,11111222,99999999' 
TABS,ioos:station:wmo:42050:1,2016-08-02T13:00:00Z,28.8425,-94.2433,2.0,107.3918683,27.96865567,-99999.0,'11111222,11111222,99999999' 
TABS,ioos:station:wmo:42050:1,2016-08-02T13:30:00Z,28.8425,-94.2433,2.0,108.7188799,26.79747003,-99999.0,'11111222,11111222,99999999' 
TABS,ioos:station:wmo:42050:1,2016-08-02T14:00:00Z,28.8425,-94.2433,2.0,114.3557765,25.29083826,-99999.0,'11111222,11111222,99999999' 
TABS,ioos:station:wmo:42050:1,2016-08-02T14:30:00Z,28.8425,-94.2433,2.0,111.2504558,28.19728356,-99999.0,'11111222,11111222,99999999' 
TABS,ioos:station:wmo:42050:1,2016-08-02T15:00:00Z,28.8425,-94.2433,2.0,106.5713429,24.89396714,-99999.0,'11111222,11111222,99999999' 
TABS,ioos:station:wmo:42050:1,2016-08-02T15:30:00Z,28.8425,-94.2433,2.0,110.8485042,25.90622512,-99999.0,'11111222,11111222,99999999' 
TABS,ioos:station:wmo:42050:1,2016-08-02T16:00:00Z,28.8425,-94.2433,2.0,98.88461135,57.88453766,-99999.0,'11111222,11111222,99999999' 
TABS,ioos:station:wmo:42050:1,2016-08-02T16:30:00Z,28.8425,-94.2433,2.0,102.0988004,58.96986688,-99999.0,'11111222,11111222,99999999' 
TABS,ioos:station:wmo:42050:1,2016-08-02T17:00:00Z,28.8425,-94.2433,2.0,106.5547188,57.73316291,-99999.0,'11111222,11111222,99999999' 
TABS,ioos:station:wmo:42050:1,2016-08-02T17:30:00Z,28.8425,-94.2433,2.0,104.4690485,59.07366249,-99999.0,'11111222,11111222,99999999' 
TABS,ioos:station:wmo:42050:1,2016-08-02T18:00:00Z,28.8425,-94.2433,2.0,107.1330284,56.92620574,-99999.0,'11111222,11111222,99999999' 
TABS,ioos:station:wmo:42050:1,2016-08-02T18:30:00Z,28.8425,-94.2433,2.0,105.2462967,57.19295411,-99999.0,'11111222,11111222,99999999' 
TABS,ioos:station:wmo:42050:1,2016-08-02T19:00:00Z,28.8425,-94.2433,2.0,109.2900011,54.88111606,-99999.0,'11111222,11111222,99999999' 
TABS,ioos:station:wmo:42050:1,2016-08-02T19:30:00Z,28.8425,-94.2433,2.0,112.9822233,54.60416925,-99999.0,'11111222,11111222,99999999' 
TABS,ioos:station:wmo:42050:1,2016-08-02T20:00:00Z,28.8425,-94.2433,2.0,114.4798291,50.14796108,-99999.0,'11111222,11111222,99999999' 
TABS,ioos:station:wmo:42050:1,2016-08-02T20:30:00Z,28.8425,-94.2433,2.0,118.6067407,50.08394254,-99999.0,'11111222,11111222,99999999' 
TABS,ioos:station:wmo:42050:1,2016-08-02T21:00:00Z,28.8425,-94.2433,2.0,122.3137111,47.45997261,-99999.0,'11111222,11111222,99999999' 
TABS,ioos:station:wmo:42050:1,2016-08-02T21:30:00Z,28.8425,-94.2433,2.0,121.736938,49.56074455,-99999.0,'11111222,11111222,99999999' 
TABS,ioos:station:wmo:42050:1,2016-08-02T22:00:00Z,28.8425,-94.2433,2.0,124.7013476,46.19708216,-99999.0,'11111222,11111222,99999999' 
TABS,ioos:station:wmo:42050:1,2016-08-02T22:30:00Z,28.8425,-94.2433,2.0,124.639935,46.0048367,-99999.0,'11111222,11111222,99999999' 
TABS,ioos:station:wmo:42050:1,2016-08-02T23:00:00Z,28.8425,-94.2433,2.0,121.1072605,45.85372068,-99999.0,'11111222,11111222,99999999' 
TABS,ioos:station:wmo:42050:1,2016-08-02T23:30:00Z,28.8425,-94.2433,2.0,116.57625,45.50845636,-99999.0,'11111222,11111222,99999999' 
TABS,ioos:station:wmo:42050:1,2016-08-03T00:00:00Z,28.8425,-94.2433,2.0,114.3052444,44.80092075,-99999.0,'11111222,11111222,99999999' 
TABS,ioos:station:wmo:42050:1,2016-08-03T00:30:00Z,28.8425,-94.2433,2.0,109.8396342,49.14707824,-99999.0,'11111222,11111222,99999999' 
TABS,ioos:station:wmo:42050:1,2016-08-03T01:00:00Z,28.8425,-94.2433,2.0,111.3152765,45.3094361,-99999.0,'11111222,11111222,99999999' 
TABS,ioos:station:wmo:42050:1,2016-08-03T01:30:00Z,28.8425,-94.2433,2.0,113.8260526,40.5235956,-99999.0,'11111222,11111222,99999999' 
TABS,ioos:station:wmo:42050:1,2016-08-03T02:00:00Z,28.8425,-94.2433,2.0,112.3896559,39.06493056,-99999.0,'11111222,11111222,99999999' 
TABS,ioos:station:wmo:42050:1,2016-08-03T02:30:00Z,28.8425,-94.2433,2.0,107.7385953,36.16964058,-99999.0,'11111222,11111222,99999999' 
TABS,ioos:station:wmo:42050:1,2016-08-03T03:00:00Z,28.8425,-94.2433,2.0,105.6995448,34.25803993,-99999.0,'11111222,11111222,99999999' 
TABS,ioos:station:wmo:42050:1,2016-08-03T03:30:00Z,28.8425,-94.2433,2.0,103.2818628,36.4756686,-99999.0,'11111222,11111222,99999999' 
TABS,ioos:station:wmo:42050:1,2016-08-03T04:00:00Z,28.8425,-94.2433,2.0,98.09349197,37.64495849,-99999.0,'11111222,11111222,99999999' 
TABS,ioos:station:wmo:42050:1,2016-08-03T04:30:00Z,28.8425,-94.2433,2.0,92.92872544,42.27521733,-99999.0,'11111222,11111222,99999999' 
TABS,ioos:station:wmo:42050:1,2016-08-03T05:00:00Z,28.8425,-94.2433,2.0,89.772685,47.8903769,-99999.0,'11111222,11111222,99999999' 
TABS,ioos:station:wmo:42050:1,2016-08-03T05:30:00Z,28.8425,-94.2433,2.0,90.34104148,47.04083333,-99999.0,'11111222,11111222,99999999' 
TABS,ioos:station:wmo:42050:1,2016-08-03T06:00:00Z,28.8425,-94.2433,2.0,88.06954532,50.16847317,-99999.0,'11111222,11111222,99999999' 
TABS,ioos:station:wmo:42050:1,2016-08-03T06:30:00Z,28.8425,-94.2433,2.0,92.23715383,49.69787923,-99999.0,'11111222,11111222,99999999' 
TABS,ioos:station:wmo:42050:1,2016-08-03T07:00:00Z,28.8425,-94.2433,2.0,91.74670616,48.88271371,-99999.0,'11111222,11111222,99999999' 
TABS,ioos:station:wmo:42050:1,2016-08-03T07:30:00Z,28.8425,-94.2433,2.0,93.77889981,45.51896748,-99999.0,'11111222,11111222,99999999' 
TABS,ioos:station:wmo:42050:1,2016-08-03T08:00:00Z,28.8425,-94.2433,2.0,94.06128934,45.32381493,-99999.0,'11111222,11111222,99999999' 
TABS,ioos:station:wmo:42050:1,2016-08-03T08:30:00Z,28.8425,-94.2433,2.0,95.99119905,45.50857172,-99999.0,'11111222,11111222,99999999' 
TABS,ioos:station:wmo:42050:1,2016-08-03T09:00:00Z,28.8425,-94.2433,2.0,97.58154859,43.42966037,-99999.0,'11111222,11111222,99999999' 
TABS,ioos:station:wmo:42050:1,2016-08-03T09:30:00Z,28.8425,-94.2433,2.0,102.876435,43.61684078,-99999.0,'11111222,11111222,99999999' 
TABS,ioos:station:wmo:42050:1,2016-08-03T10:00:00Z,28.8425,-94.2433,2.0,105.494939,43.15864919,-99999.0,'11111222,11111222,99999999' 
TABS,ioos:station:wmo:42050:1,2016-08-03T10:30:00Z,28.8425,-94.2433,2.0,107.1163991,43.01520313,-99999.0,'11111222,11111222,99999999' 
TABS,ioos:station:wmo:42050:1,2016-08-03T11:00:00Z,28.8425,-94.2433,2.0,104.849615,36.56107903,-99999.0,'11111222,11111222,99999999' 
TABS,ioos:station:wmo:42050:1,2016-08-03T11:30:00Z,28.8425,-94.2433,2.0,107.4431804,43.30122977,-99999.0,'11111222,11111222,99999999' 
TABS,ioos:station:wmo:42050:1,2016-08-03T12:00:00Z,28.8425,-94.2433,2.0,106.0127165,45.56802497,-99999.0,'11111222,11111222,99999999' 
TABS,ioos:station:wmo:42050:1,2016-08-03T12:30:00Z,28.8425,-94.2433,2.0,109.8909551,45.17507388,-99999.0,'11111222,11111222,99999999' 
TABS,ioos:station:wmo:42050:1,2016-08-03T13:00:00Z,28.8425,-94.2433,2.0,110.9610763,44.6979608,-99999.0,'11111222,11111222,99999999' 
TABS,ioos:station:wmo:42050:1,2016-08-03T13:30:00Z,28.8425,-94.2433,2.0,109.8449385,45.36396037,-99999.0,'11111222,11111222,99999999' 
TABS,ioos:station:wmo:42050:1,2016-08-03T14:00:00Z,28.8425,-94.2433,2.0,110.1342206,44.04143617,-99999.0,'11111222,11111222,99999999' 
TABS,ioos:station:wmo:42050:1,2016-08-03T14:30:00Z,28.8425,-94.2433,2.0,111.5061217,44.3260657,-99999.0,'11111222,11111222,99999999' 
TABS,ioos:station:wmo:42050:1,2016-08-03T15:00:00Z,28.8425,-94.2433,2.0,110.3517929,43.6765223,-99999.0,'11111222,11111222,99999999' 
TABS,ioos:station:wmo:42050:1,2016-08-03T15:30:00Z,28.8425,-94.2433,2.0,107.7736431,44.3886855,-99999.0,'11111222,11111222,99999999' 
TABS,ioos:station:wmo:42050:1,2016-08-03T16:00:00Z,28.8425,-94.2433,2.0,107.668134,45.37009808,-99999.0,'11111222,11111222,99999999' 
TABS,ioos:station:wmo:42050:1,2016-08-03T16:30:00Z,28.8425,-94.2433,2.0,107.7791049,45.5872186,-99999.0,'11111222,11111222,99999999' 
TABS,ioos:station:wmo:42050:1,2016-08-03T17:00:00Z,28.8425,-94.2433,2.0,107.926438,44.54243482,-99999.0,'11111222,11111222,99999999' 
TABS,ioos:station:wmo:42050:1,2016-08-03T17:30:00Z,28.8425,-94.2433,2.0,106.9851686,43.37187222,-99999.0,'11111222,11111222,99999999' 
TABS,ioos:station:wmo:42050:1,2016-08-03T18:00:00Z,28.8425,-94.2433,2.0,109.0787457,42.49420784,-99999.0,'11111222,11111222,99999999' 
TABS,ioos:station:wmo:42050:1,2016-08-03T18:30:00Z,28.8425,-94.2433,2.0,109.9175424,39.59864897,-99999.0,'11111222,11111222,99999999' 
TABS,ioos:station:wmo:42050:1,2016-08-03T19:00:00Z,28.8425,-94.2433,2.0,109.7357226,39.97833038,-99999.0,'11111222,11111222,99999999' 
TABS,ioos:station:wmo:42050:1,2016-08-03T19:30:00Z,28.8425,-94.2433,2.0,112.242467,40.76319173,-99999.0,'11111222,11111222,99999999' 
TABS,ioos:station:wmo:42050:1,2016-08-03T20:00:00Z,28.8425,-94.2433,2.0,111.0771692,40.40310508,-99999.0,'11111222,11111222,99999999' 
TABS,ioos:station:wmo:42050:1,2016-08-03T20:30:00Z,28.8425,-94.2433,2.0,113.3142773,40.3006526,-99999.0,'11111222,11111222,99999999' 
TABS,ioos:station:wmo:42050:1,2016-08-03T21:00:00Z,28.8425,-94.2433,2.0,113.7038544,40.49647886,-99999.0,'11111222,11111222,99999999' 
TABS,ioos:station:wmo:42050:1,2016-08-03T21:30:00Z,28.8425,-94.2433,2.0,115.3174874,39.02863692,-99999.0,'11111222,11111222,99999999' 
TABS,ioos:station:wmo:42050:1,2016-08-03T22:00:00Z,28.8425,-94.2433,2.0,119.0399734,38.2142722,-99999.0,'11111222,11111222,99999999' 
TABS,ioos:station:wmo:42050:1,2016-08-03T22:30:00Z,28.8425,-94.2433,2.0,120.3401531,39.87063707,-99999.0,'11111222,11111222,99999999' 
TABS,ioos:station:wmo:42050:1,2016-08-03T23:00:00Z,28.8425,-94.2433,2.0,119.957312,40.13171439,-99999.0,'11111222,11111222,99999999' 
TABS,ioos:station:wmo:42050:1,2016-08-03T23:30:00Z,28.8425,-94.2433,2.0,123.7730921,38.24384526,-99999.0,'11111222,11111222,99999999' 
TABS,ioos:station:wmo:42050:1,2016-08-04T00:00:00Z,28.8425,-94.2433,2.0,120.4924384,38.78400186,-99999.0,'11111222,11111222,99999999' 
TABS,ioos:station:wmo:42050:1,2016-08-04T00:30:00Z,28.8425,-94.2433,2.0,119.6125578,36.00241797,-99999.0,'11111222,11111222,99999999' 
TABS,ioos:station:wmo:42050:1,2016-08-04T01:00:00Z,28.8425,-94.2433,2.0,126.9302074,34.15201897,-99999.0,'11111222,11111222,99999999' 
TABS,ioos:station:wmo:42050:1,2016-08-04T01:30:00Z,28.8425,-94.2433,2.0,124.7433801,27.00459591,-99999.0,'11111222,11111222,99999999' 
TABS,ioos:station:wmo:42050:1,2016-08-04T02:00:00Z,28.8425,-94.2433,2.0,119.4035429,27.90458923,-99999.0,'11111222,11111222,99999999' 
TABS,ioos:station:wmo:42050:1,2016-08-04T02:30:00Z,28.8425,-94.2433,2.0,115.0337189,24.60106095,-99999.0,'11111222,11111222,99999999' 
TABS,ioos:station:wmo:42050:1,2016-08-04T03:00:00Z,28.8425,-94.2433,2.0,107.86235,23.73407887,-99999.0,'11111222,11111222,99999999' 
TABS,ioos:station:wmo:42050:1,2016-08-04T03:30:00Z,28.8425,-94.2433,2.0,102.8671893,24.60793571,-99999.0,'11111222,11111222,99999999' 
TABS,ioos:station:wmo:42050:1,2016-08-04T04:00:00Z,28.8425,-94.2433,2.0,100.2633188,24.69514122,-99999.0,'11111222,11111222,99999999' 
TABS,ioos:station:wmo:42050:1,2016-08-04T04:30:00Z,28.8425,-94.2433,2.0,92.03770463,23.90511661,-99999.0,'11111222,11111222,99999999' 
TABS,ioos:station:wmo:42050:1,2016-08-04T05:00:00Z,28.8425,-94.2433,2.0,86.32893198,24.52031403,-99999.0,'11111222,11111222,99999999' 
TABS,ioos:station:wmo:42050:1,2016-08-04T05:30:00Z,28.8425,-94.2433,2.0,83.23278557,27.41097043,-99999.0,'11111222,11111222,99999999' 
TABS,ioos:station:wmo:42050:1,2016-08-04T06:00:00Z,28.8425,-94.2433,2.0,73.55406887,25.78493552,-99999.0,'11111222,11111222,99999999' 
TABS,ioos:station:wmo:42050:1,2016-08-04T06:30:00Z,28.8425,-94.2433,2.0,71.73155415,27.21151411,-99999.0,'11111222,11111222,99999999' 
TABS,ioos:station:wmo:42050:1,2016-08-04T07:00:00Z,28.8425,-94.2433,2.0,69.38641931,26.78488006,-99999.0,'11111222,11111222,99999999' 
TABS,ioos:station:wmo:42050:1,2016-08-04T07:30:00Z,28.8425,-94.2433,2.0,69.36376371,27.57960297,-99999.0,'11111222,11111222,99999999' 
TABS,ioos:station:wmo:42050:1,2016-08-04T08:00:00Z,28.8425,-94.2433,2.0,69.61692436,27.53405528,-99999.0,'11111222,11111222,99999999' 
TABS,ioos:station:wmo:42050:1,2016-08-04T08:30:00Z,28.8425,-94.2433,2.0,67.02310923,27.1543735,-99999.0,'11111222,11111222,99999999' 
TABS,ioos:station:wmo:42050:1,2016-08-04T09:00:00Z,28.8425,-94.2433,2.0,71.90387236,26.20625307,-99999.0,'11111222,11111222,99999999' 
TABS,ioos:station:wmo:42050:1,2016-08-04T09:30:00Z,28.8425,-94.2433,2.0,70.17386111,25.26772249,-99999.0,'11111222,11111222,99999999' 
TABS,ioos:station:wmo:42050:1,2016-08-04T10:00:00Z,28.8425,-94.2433,2.0,70.95735228,26.23573136,-99999.0,'11111222,11111222,99999999' 
TABS,ioos:station:wmo:42050:1,2016-08-04T10:30:00Z,28.8425,-94.2433,2.0,66.66054476,28.2953088,-99999.0,'11111222,11111222,99999999' 
TABS,ioos:station:wmo:42050:1,2016-08-04T11:00:00Z,28.8425,-94.2433,2.0,72.46316098,25.42151058,-99999.0,'11111222,11111222,99999999' 
TABS,ioos:station:wmo:42050:1,2016-08-04T11:30:00Z,28.8425,-94.2433,2.0,77.38128232,29.0209924,-99999.0,'11111222,11111222,99999999' 
TABS,ioos:station:wmo:42050:1,2016-08-04T12:00:00Z,28.8425,-94.2433,2.0,81.87262478,29.92051637,-99999.0,'11111222,11111222,99999999' 
TABS,ioos:station:wmo:42050:1,2016-08-04T12:30:00Z,28.8425,-94.2433,2.0,83.22346865,31.61083675,-99999.0,'11111222,11111222,99999999' 
TABS,ioos:station:wmo:42050:1,2016-08-04T13:00:00Z,28.8425,-94.2433,2.0,83.30200949,31.12241957,-99999.0,'11111222,11111222,99999999' 
TABS,ioos:station:wmo:42050:1,2016-08-04T13:30:00Z,28.8425,-94.2433,2.0,84.85180004,31.42677839,-99999.0,'11111222,11111222,99999999' 
TABS,ioos:station:wmo:42050:1,2016-08-04T14:00:00Z,28.8425,-94.2433,2.0,83.70121079,33.63303436,-99999.0,'11111222,11111222,99999999' 
TABS,ioos:station:wmo:42050:1,2016-08-04T14:30:00Z,28.8425,-94.2433,2.0,84.35628825,33.25118043,-99999.0,'11111222,11111222,99999999' 
TABS,ioos:station:wmo:42050:1,2016-08-04T15:00:00Z,28.8425,-94.2433,2.0,85.34428142,33.51057147,-99999.0,'11111222,11111222,99999999' 
TABS,ioos:station:wmo:42050:1,2016-08-04T15:30:00Z,28.8425,-94.2433,2.0,85.277124,36.19289019,-99999.0,'11111222,11111222,99999999' 
TABS,ioos:station:wmo:42050:1,2016-08-04T16:00:00Z,28.8425,-94.2433,2.0,84.97507542,36.41997392,-99999.0,'11111222,11111222,99999999' 